Regional Weather Roundup
Issued by NWS Midland/Odessa, TX

Skip options and go directly to product.
Home | Oldest Version | Previous Version | Current Version | All | Text Only | Save Text | Print | Product List | Glossary On

Skip product version selection by date and time.   
378
ASUS44 KMAF 040110
RWRMAF
MIDLAND AREA WEATHER ROUNDUP
NATIONAL WEATHER SERVICE MIDLAND TX
800 PM CDT MON AUG 03 2015

...IN SOUTHWEST TEXAS AND SOUTHEAST NEW MEXICO...

CITY           SKY/WX    TMP DP  RH WIND       PRES   REMARKS
ALPINE         MOCLDY    84  57  39 SE3       30.08S
ANDREWS        MOCLDY    91  59  34 SE14      29.91R
ARTESIA        NOT AVBL
BIG SPRING     CLEAR     90  56  31 SE13      29.91S
CARLSBAD       CLOUDY    75  64  68 SW12      29.97S
DRYDEN           N/A     96  57  27 VRB7      29.86R
FORT STOCKTON  PTCLDY    92  56  29 SE12      29.90S
GUAD PASS      CLOUDY    75  58  55 E23       30.14R
HOBBS            N/A    N/A N/A N/A MISG        N/A
MARFA          MOCLDY    81  61  50 NW7       30.07S
MIDLAND AIRPK  PTCLDY    94  56  27 SE15      29.90R
MIDLAND INTL   PTCLDY    94  59  31 SE15      29.89R
ODESSA         PTCLDY    93  56  28 S15       29.90R
PECOS          CLOUDY    81  64  54 N29       29.91R
PRESIDIO       FAIR      96  57  27 MISG      29.85S
SEMINOLE       CLOUDY    74  66  77 W25G37    30.00R
SNYDER         CLEAR     91  62  37 SE10      29.91R
WINK           CLOUDY    78  64  61 W21G36    29.93R
$$
...OTHER STATIONS IN TEXAS...

CITY           SKY/WX    TMP DP  RH WIND       PRES   REMARKS
ABILENE        CLEAR     93  61  34 SE13      29.89R
AMARILLO       CLOUDY    81  67  62 SE15      29.97S
AUSTIN         PTCLDY    91  61  36 SE9       29.86R
BROWNSVILLE    PTCLDY    85  76  74 SE12      29.85S
CORPUS CHRISTI PTCLDY    84  75  74 SE15      29.85S
DALLAS FTW     PTCLDY    94  59  31 SE12      29.85S
DEL RIO        CLEAR     96  60  30 E10       29.81R
EL PASO        MOSUNNY   91  53  27 CALM      29.96S
HOUSTON INT    PTCLDY    89  71  55 S9        29.87R
LUBBOCK        CLOUDY    82  65  56 NW3       29.95S THUNDER
SAN ANGELO     CLEAR     95  59  30 E13       29.86R
SAN ANTONIO    PTCLDY    92  60  34 SE12      29.87R
WACO           CLEAR     93  59  31 SE8       29.86S
WICHITA FALLS  NOT AVBL
$$
...OTHER LOCATIONS IN NEW MEXICO...

CITY           SKY/WX    TMP DP  RH WIND       PRES   REMARKS
ALAMAGORDO     MOSUNNY   95  41  15 W8        29.96S
ALBUQUERQUE    MOSUNNY   88  42  20 NW13      30.08S
CANNON AFB     MOCLDY    78  62  57 S14       30.00R
CLOVIS         MOCLDY    79  59  50 S14       30.01R
HOLLOMAN AFB     N/A     94  48  20 W10       29.93F
ROSWELL        PTSUNNY   82  62  50 SW10      29.96R
RUIDOSO        NOT AVBL
SANTA FE       SUNNY     81  43  26 NW7       30.12S
TRUTH OR CONSE PTSUNNY   90  51  26 SE10      30.01S
TUCUMCARI      SUNNY     87  62  43 S10       29.92S
$$

USA.gov is the U.S. government's official web portal to all federal, state and local government web resources and services.